Probability
0 0 0 0 0 0 0 0 0 0 0 0 0 0 0 0 0 0 0 0 0 0 1 1 1 0 0 0 0 0 0 0 0 0 0 0 0 0 0 0 0 0 0
0 0 0 0 0 0 0 0 0 0 0 0 0 0 0 0 0 0 1 1 0 0 0 0 0 0 0 0 0 0 0 0 0 0 0 0 0 0 0 0 0 0 0
0 0 0 0 0 0 0 0 0 0 0 0 0 0 0 0 0 1 2 2 1 1 1 0 0 0 0 0 0 0 0 0 0 0 0 0 0 0 0 0 0 0 0
0 0 0 0 0 0 0 0 0 0 0 0 0 0 0 0 0 1 2 3 3 2 2 1 0 0 0 0 0 0 0 0 0 0 0 0 0 0 0 0 0 0 0
0 0 0 0 0 0 0 0 0 0 0 0 0 0 0 0 0 0 1 2 3 3 3 2 1 0 0 0 0 0 0 0 0 0 0 0 0 0 0 0 0 0 0
0 0 0 0 0 0 0 0 0 0 0 0 0 0 0 0 0 0 0 1 3 3 3 3 2 1 0 0 0 0 0 0 0 0 0 0 0 0 0 0 0 0 0
0 0 0 0 0 0 0 0 0 0 0 0 0 0 0 0 0 0 0 1 2 3 3 3 3 2 1 0 0 0 0 0 0 0 0 0 0 0 0 0 0 0 0
0 0 0 0 0 0 0 0 0 0 0 0 0 0 0 0 0 0 0 1 2 3 3 3 3 2 1 0 0 0 0 0 0 0 0 0 0 0 0 0 0 0 0
0 0 0 0 0 0 0 0 0 0 0 0 0 0 0 0 0 0 0 1 2 2 2 2 2 1 0 0 0 0 0 0 0 0 0 0 0 0 0 0 0 0 0
0 0 0 0 0 0 0 0 0 0 0 0 0 0 0 0 0 0 0 0 1 1 1 1 1 0 0 0 0 0 0 0 0 0 0 0 0 0 0 0 0 0 0
0 0 0 0 0 0 0 0 0 0 0 0 0 0 0 0 0 0 0 0 0 0 0 0 0 0 0 0 0 0 0 0 0 0 0 0 0 0 0 0 0 0 0
0 0 0 0 0 0 0 0 0 0 0 0 0 0 0 0 0 0 0 0 0 0 0 0 0 0 0 0 0 0 0 0 0 0 0 0 0 0 0 0 0 0 0
0 0 0 0 0 0 0 0 0 0 0 0 0 0 0 0 0 0 0 0 0 0 0 0 0 0 0 0 0 0 0 0 0 0 0 0 0 0 0 0 0 0 0
0 0 0 0 0 0 0 0 0 0 0 0 0 0 0 0 0 0 0 0 0 0 0 0 0 0 0 0 0 0 0 0 0 0 0 0 0 0 0 0 0 0 0
0 0 0 0 0 0 0 0 0 0 0 0 0 0 0 0 0 0 0 0 0 0 0 0 0 0 0 0 0 0 0 0 0 0 0 0 0 0 0 0 0 0 0
0 0 0 0 0 0 0 0 0 0 0 0 0 0 0 0 0 0 0 0 0 0 0 0 0 0 0 0 0 0 0 0 0 0 0 0 0 0 0 0 0 0 0
0 0 0 0 0 0 0 0 0 0 0 0 0 0 0 0 0 0 0 0 0 0 0 0 0 0 0 0 0 0 0 0 0 0 0 0 0 0 0 0 0 0 0
0 0 0 0 0 0 0 0 0 0 0 0 0 0 0 0 0 0 0 0 0 0 0 0 0 0 0 0 0 0 0 0 0 0 0 0 0 0 0 0 0 0 0
0 0 0 0 0 0 0 0 0 0 0 0 0 0 0 0 0 0 0 0 0 0 0 0 0 0 0 0 0 0 0 0 0 0 0 0 0 0 0 0 0 0 0
0 0 0 0 0 0 0 0 0 0 0 0 0 0 0 0 0 0 0 0 0 0 0 0 0 0 0 0 0 0 0 0 0 0 0 0 0 0 0 0 0 0 0
0 0 0 0 0 0 0 0 0 0 0 0 0 0 0 0 0 0 0 0 0 0 0 0 0 0 0 0 0 0 0 0 0 0 0 0 0 0 0 0 0 0 0
0 0 0 0 0 0 0 0 0 0 0 0 0 0 0 0 0 0 0 0 0 0 0 0 0 0 0 0 0 0 0 0 0 0 0 0 0 0 0 0 0 0 0
0 0 0 0 0 0 0 0 0 0 0 0 0 0 0 0 0 0 0 0 0 0 0 0 0 0 0 0 0 0 0 0 0 0 0 0 0 0 0 0 0 0 0
0 0 0 0 0 0 0 0 0 0 0 0 0 0 0 0 0 0 0 0 0 0 0 0 0 0 0 0 0 0 0 0 0 0 0 0 0 0 0 0 0 0 0
0 0 0 0 0 0 0 0 0 0 0 0 0 0 0 0 0 0 0 0 0 0 0 0 0 0 0 0 0 0 0 0 0 0 0 0 0 0 0 0 0 0 0
0 0 0 0 0 0 0 0 0 0 0 0 0 0 0 0 0 0 0 0 0 0 0 0 0 0 0 0 0 0 0 0 0 0 0 0 0 0 0 0 0 0 0
Wind_Speed
2 1 1 2 2 2 3 5 5 5 5 6 7 7 8 9 9 9 10 10 11 11 10 11 12 11 10 9 9 9 9 10 13 8 4 4 6 6 5 5 5 5 5
2 2 2 2 2 2 3 4 4 4 4 5 5 6 7 7 8 9 10 10 11 12 12 12 12 9 12 10 9 10 9 9 10 12 6 5 6 6 5 5 5 4 5
4 3 4 4 4 4 4 4 4 4 4 4 4 5 6 7 7 8 9 10 11 11 11 11 11 11 11 9 10 9 8 8 9 10 9 4 4 3 4 3 3 4 4
4 4 4 5 5 4 5 5 4 4 5 5 5 5 6 6 6 7 7 8 9 10 10 10 10 10 11 10 9 10 9 9 9 9 9 5 4 3 3 4 4 4 4
4 4 4 4 4 4 5 5 5 5 5 5 5 5 6 5 5 6 7 8 9 9 9 9 10 10 11 10 8 8 8 8 7 8 8 6 5 3 5 4 5 4 3
3 3 4 4 5 5 5 6 6 5 5 5 5 5 6 5 8 9 8 8 8 9 9 8 8 9 10 12 13 12 11 11 10 9 8 8 8 6 4 4 4 3 4
3 3 4 4 5 5 6 5 6 6 6 6 6 6 6 7 10 10 9 8 8 8 8 8 7 6 7 8 9 11 12 13 14 12 11 11 8 7 6 6 6 6 6
2 3 4 5 5 5 5 5 6 5 6 6 6 7 7 8 11 11 11 7 7 8 8 8 8 8 6 7 7 7 7 7 9 9 10 9 6 5 7 8 7 4 1
2 3 4 4 4 5 5 6 6 6 6 6 6 7 7 9 11 12 10 6 6 8 7 7 7 8 8 8 7 7 7 6 5 7 8 8 6 5 4 3 3 3 3
3 3 4 4 4 4 5 5 5 5 6 6 7 6 6 8 11 12 10 5 6 6 6 6 7 8 9 7 6 7 8 7 4 3 4 5 4 4 5 5 5 5 3
3 3 4 4 4 4 5 4 5 5 5 6 7 6 6 7 9 10 9 5 5 6 6 6 5 9 9 9 8 7 9 7 4 3 3 3 2 1 1 2 3 4 4
3 3 4 4 4 3 4 5 4 4 5 6 6 7 5 4 6 8 9 8 7 6 7 6 6 10 11 11 9 8 8 6 3 3 3 3 2 2 1 1 0 1 1
3 4 4 4 4 3 4 4 4 4 4 4 4 6 6 4 5 8 8 9 9 7 6 9 11 12 11 9 8 8 6 3 3 4 4 4 2 2 1 1 2 3 4
3 4 4 4 4 4 3 3 3 4 4 4 5 5 6 6 4 4 4 5 6 6 6 7 9 10 8 7 6 5 4 4 4 4 4 2 1 1 1 1 1 2 1
4 4 4 3 4 4 4 3 5 4 4 5 5 5 6 7 7 10 8 6 5 6 7 6 5 5 5 4 4 3 3 3 3 3 3 2 2 2 2 1 1 2 2
3 3 3 3 3 4 5 6 7 7 9 9 9 8 6 9 13 14 14 13 13 11 7 5 6 5 5 5 5 5 4 3 3 3 3 3 3 3 2 2 2 2 2
3 4 3 3 3 4 4 5 7 7 8 9 10 11 11 12 13 13 14 13 11 9 5 5 6 6 6 5 5 5 5 4 3 3 3 3 3 3 3 3 3 3 2
3 3 3 3 3 3 4 4 5 6 7 6 8 11 13 13 13 13 13 10 7 5 4 5 6 6 6 6 5 5 5 4 3 3 3 3 3 3 3 4 4 3 3
2 2 2 3 3 3 4 4 4 5 6 7 7 8 10 12 11 11 9 4 5 5 5 6 6 6 6 6 5 5 5 4 4 3 3 3 3 3 4 4 3 4 3
2 3 3 3 3 3 3 4 4 4 5 6 6 6 6 6 6 7 5 4 4 5 6 6 6 6 6 5 5 5 5 4 4 4 4 3 3 3 4 4 4 4 3
2 2 3 3 3 3 3 3 4 4 5 5 6 7 10 6 6 6 6 5 5 6 6 6 6 6 6 5 5 5 5 5 4 4 3 3 3 3 3 3 3 3 4
2 2 2 3 3 3 3 3 4 4 5 6 6 7 10 5 5 6 6 6 6 6 6 6 6 6 5 5 5 5 5 5 4 4 3 3 3 3 2 2 3 3 4
2 2 3 3 3 3 3 3 3 4 5 5 6 6 6 5 5 6 6 7 7 6 5 5 6 6 6 5 5 5 6 6 5 4 4 3 3 3 3 3 4 5 5
2 2 3 3 3 3 3 4 4 4 5 5 5 5 6 6 6 7 7 7 7 6 6 5 6 7 9 8 6 5 5 5 4 4 5 4 4 3 3 3 4 5 5
2 2 2 3 3 3 4 4 4 4 5 5 5 5 6 6 6 7 7 6 7 7 7 7 6 6 8 10 9 7 7 7 5 4 4 4 4 4 4 4 4 5 5
2 2 2 2 3 3 4 4 4 5 5 5 5 5 6 6 6 7 7 7 7 7 7 6 7 8 10 9 9 9 8 6 5 4 4 3 4 4 4 4 5 5 6
Wind_Direction
359 348 339 313 290 271 258 258 258 258 254 252 252 250 248 247 245 246 248 247 247 249 246 245 245 241 242 238 235 235 237 240 259 264 227 219 211 219 225 225 227 229 227
5 14 5 358 358 341 313 303 296 283 275 267 264 260 258 255 252 251 255 253 253 254 252 250 250 247 245 243 239 238 239 237 248 263 254 226 223 216 216 217 220 222 226
20 26 20 10 1 344 330 325 323 310 301 293 281 272 270 267 262 258 257 257 256 256 255 253 252 247 249 247 243 242 241 239 240 253 259 239 229 203 215 225 221 223 225
25 29 21 6 355 343 335 332 329 324 316 310 300 290 285 281 277 273 270 267 265 262 258 256 254 250 250 249 248 247 244 243 241 247 254 247 232 203 193 216 232 223 231
30 29 12 359 355 353 348 341 336 332 324 315 311 305 300 293 292 296 289 280 275 272 267 261 259 257 255 253 253 252 250 250 247 248 252 250 233 210 214 206 224 226 233
30 18 3 359 358 357 348 342 338 335 330 326 319 310 308 304 311 307 299 290 284 280 279 275 269 258 259 256 254 252 248 250 253 251 251 248 244 227 218 208 209 214 239
24 14 4 359 355 348 343 343 340 335 331 328 325 321 313 312 318 315 308 292 286 282 282 283 282 277 268 268 265 261 257 251 247 252 256 253 245 223 206 214 214 219 231
16 6 359 354 345 337 338 338 334 329 326 321 322 320 314 313 319 318 314 294 286 286 285 284 284 285 280 277 277 272 268 265 258 252 258 263 253 230 211 215 215 209 203
358 349 342 335 328 328 330 329 327 325 322 319 315 316 315 313 319 318 318 307 298 296 295 293 289 288 291 284 279 279 280 278 278 261 262 265 263 245 211 177 179 191 234
319 317 315 314 311 312 312 315 317 317 312 313 312 309 306 305 312 316 318 307 304 303 302 298 290 289 294 291 280 277 278 282 283 297 285 277 266 246 214 209 199 204 217
305 309 311 309 305 302 304 307 310 310 309 309 306 305 303 299 308 312 312 305 302 303 302 303 301 300 297 290 281 273 270 279 280 270 275 281 286 260 235 240 224 211 212
312 309 310 309 306 306 303 305 307 306 305 305 306 308 303 303 306 311 313 307 305 298 297 300 301 304 301 296 287 278 275 277 273 268 267 267 262 256 245 221 228 7 343
317 311 308 308 307 304 300 303 307 303 299 302 305 306 308 310 309 315 315 313 310 300 295 297 299 301 302 296 286 278 273 265 262 264 259 263 259 241 172 108 78 74 54
312 310 311 312 314 314 308 300 293 293 294 298 301 301 305 307 311 317 314 313 311 304 298 299 299 297 293 289 289 282 270 260 254 257 263 265 244 190 207 193 183 151 105
311 308 311 310 309 309 305 295 291 286 281 289 293 295 302 305 313 319 315 309 306 300 303 299 299 303 300 297 294 284 277 269 263 264 257 255 239 227 232 209 192 178 187
306 308 309 310 311 310 308 306 300 296 302 298 294 294 293 298 310 314 315 311 309 307 302 296 296 293 291 292 294 294 286 276 272 266 255 245 237 230 225 207 196 199 193
290 296 299 301 302 303 304 305 309 315 314 311 312 313 310 312 315 316 318 316 314 316 301 293 290 290 290 290 288 286 286 285 278 266 260 252 238 226 219 212 202 197 189
290 286 283 282 286 291 293 295 299 305 312 315 322 323 323 322 323 325 326 324 319 322 299 292 292 293 291 289 288 287 287 287 278 271 265 253 237 227 220 215 209 201 187
294 292 290 287 285 285 290 293 294 297 299 305 313 322 329 328 329 331 335 326 310 308 305 298 295 295 295 294 292 290 286 281 278 274 267 259 244 229 226 217 209 190 176
290 296 299 292 292 294 295 296 299 301 302 305 309 314 323 326 324 326 328 315 306 301 301 298 296 296 294 294 294 293 292 289 284 277 271 262 251 238 226 214 203 190 181
291 294 294 292 288 287 290 293 295 296 296 299 301 308 317 315 309 308 309 306 300 296 296 296 296 297 296 295 293 290 285 283 280 278 273 262 248 243 230 210 196 182 162
285 281 285 282 284 287 289 289 289 289 291 296 301 309 316 310 302 302 300 297 292 289 289 290 291 291 290 289 289 289 285 281 275 268 264 257 244 231 215 200 188 172 159
291 292 292 291 283 285 289 287 286 287 290 293 298 305 308 304 300 298 298 299 298 295 293 291 291 293 294 290 283 276 274 272 266 256 249 247 243 231 207 192 181 173 170
292 287 291 296 300 299 294 293 292 293 294 296 298 299 301 302 302 302 301 301 302 303 300 295 290 291 294 293 288 281 274 272 263 248 239 233 231 224 205 188 181 173 167
291 288 289 292 295 295 296 296 293 293 294 295 296 298 300 300 300 301 302 302 303 302 304 302 296 293 292 292 290 287 285 279 268 253 240 230 217 208 195 185 176 164 162
289 287 287 288 288 289 289 292 295 296 295 295 295 296 298 299 299 301 303 304 305 304 304 302 300 301 300 297 292 291 288 281 265 254 240 218 198 195 185 175 163 160 158